Des Moines, IA

1:08 AM CST on January 20, 2017 (GMT -0600)
Des Moines International

Weather History for KDSM - September, 2013

Change the Weather History Date:

Wednesday, September 11, 2013

  Actual Average Record
Temperature  
Mean Temperature 81 °F 68 °F  
Max Temperature 89 °F 78 °F 97 °F (2000)
Min Temperature 73 °F 57 °F 40 °F (1955)
Degree Days  
Heating Degree Days 0 2  
Month to date heating degree days 0 13  
Since 1 July heating degree days 0 19  
Cooling Degree Days 16 5  
Month to date cooling degree days 160 63  
Year to date cooling degree days 1261 1002  
Growing Degree Days 31 (Base 50)    
Moisture  
Dew Point 66 °F    
Average Humidity 63    
Maximum Humidity 79    
Minimum Humidity 47    
Precipitation  
Precipitation T in 0.11 in 1.28 in (1910)
Month to date precipitation 0.17 1.21  
Year to date precipitation 23.71 27.93  
Snow  
Snow 0.00 in 0.00 in - ()
Month to date snowfall 0.0 0.0  
Since 1 July snowfall 0.0 0.0  
Since 1 September snowfall 0.0 0.0  
Snow Depth 0.00 in    
Sea Level Pressure  
Sea Level Pressure 30.03 in    
Wind  
Wind Speed 6 mph (WNW)    
Max Wind Speed 14 mph    
Max Gust Speed 17 mph    
Visibility 10 miles    
Events      
T = Trace of Precipitation, MM = Missing Value Source: NWS Daily Summary

Daily Weather History Graph

Daily Weather History Graph

Search for Another Location

Airport or City:

Trip Planner

Search our weather history database for the weather conditions in past years. The results will help you decide how hot, cold, wet, or windy it might be!

Date:

Astronomy

Sep. 11, 2013 Rise Set
Actual Time 6:51 AM CDT 7:30 PM CDT
Civil Twilight 6:23 AM CDT 7:58 PM CDT
Nautical Twilight 5:50 AM CDT 8:31 PM CDT
Astronomical Twilight 5:15 AM CDT 9:05 PM CDT
Moon 1:24 PM CDT (9/11) 11:22 PM CDT (9/11)
Length of Visible Light 13h 35m
Length of Day
12h 39m
Waxing Crescent, 39% of the Moon is Illuminated
Sep 11
Waxing Crescent
Sep 12
First Quarter
Sep 19
Full
Sep 26
Last Quarter
Oct 4
New

Hourly Weather History & Observations

Time (CDT) Temp. Heat Index Dew Point Humidity Pressure Visibility Wind Dir Wind Speed Gust Speed Precip Events Conditions
12:54 AM 80.1 °F 81.9 °F 64.9 °F 60% 29.96 in 10.0 mi South 9.2 mph - N/A   Mostly Cloudy
1:54 AM 81.0 °F 82.7 °F 64.9 °F 58% 29.99 in 10.0 mi NNE 6.9 mph - N/A   Overcast
2:54 AM 77.0 °F - 66.0 °F 69% 30.00 in 10.0 mi WSW 5.8 mph - N/A   Mostly Cloudy
3:54 AM 75.9 °F - 66.9 °F 74% 30.01 in 10.0 mi West 10.4 mph - N/A   Mostly Cloudy
4:54 AM 75.0 °F - 66.0 °F 73% 30.04 in 10.0 mi WNW 10.4 mph - N/A   Mostly Cloudy
5:54 AM 75.0 °F - 66.0 °F 73% 30.04 in 10.0 mi NW 10.4 mph - N/A   Mostly Cloudy
6:54 AM 73.9 °F - 66.0 °F 76% 30.05 in 10.0 mi NNW 4.6 mph - 0.00 in   Overcast
7:54 AM 73.9 °F - 66.0 °F 76% 30.05 in 10.0 mi Calm Calm - 0.00 in   Overcast
8:54 AM 75.0 °F - 66.9 °F 76% 30.06 in 10.0 mi South 4.6 mph - N/A   Overcast
9:54 AM 77.0 °F - 68.0 °F 74% 30.07 in 10.0 mi SW 5.8 mph - N/A   Overcast
10:54 AM 78.1 °F - 68.0 °F 71% 30.07 in 10.0 mi WSW 6.9 mph - N/A   Overcast
11:54 AM 81.0 °F 83.8 °F 68.0 °F 65% 30.06 in 10.0 mi SW 9.2 mph - N/A   Overcast
12:54 PM 84.0 °F 87.0 °F 68.0 °F 58% 30.06 in 10.0 mi NNW 9.2 mph - N/A   Overcast
1:54 PM 84.9 °F 87.6 °F 66.9 °F 55% 30.05 in 10.0 mi West 6.9 mph - N/A   Overcast
2:54 PM 87.1 °F 90.6 °F 68.0 °F 53% 30.04 in 10.0 mi West 8.1 mph - N/A   Overcast
3:54 PM 86.0 °F 89.4 °F 68.0 °F 55% 30.03 in 10.0 mi NW 9.2 mph - N/A   Overcast
4:54 PM 89.1 °F 91.3 °F 66.0 °F 46% 30.02 in 10.0 mi North 5.8 mph - N/A   Mostly Cloudy
5:54 PM 84.9 °F 87.6 °F 66.9 °F 55% 30.02 in 10.0 mi NNE 4.6 mph - N/A   Mostly Cloudy
6:54 PM 84.0 °F 84.5 °F 62.1 °F 47% 30.02 in 10.0 mi North 6.9 mph - N/A   Overcast
7:54 PM 82.0 °F 83.0 °F 62.1 °F 51% 30.03 in 10.0 mi North 4.6 mph - N/A   Overcast
8:54 PM 79.0 °F - 63.0 °F 58% 30.05 in 10.0 mi NNW 3.5 mph - N/A   Overcast
9:54 PM 79.0 °F - 62.1 °F 56% 30.05 in 10.0 mi Calm Calm - N/A   Overcast
10:54 PM 79.0 °F - 61.0 °F 54% 30.05 in 10.0 mi Calm Calm - N/A   Mostly Cloudy
11:54 PM 75.9 °F - 62.1 °F 62% 30.05 in 10.0 mi Calm Calm - N/A   Overcast